#datetime,building,power
2022-11-27T00:00:00,pth,2.40
2022-11-27T00:02:00,pth,2.40
2022-11-27T00:03:00,pth,1.20
2022-11-27T00:05:00,pth,2.40
2022-11-27T00:06:00,pth,1.20
2022-11-27T00:08:00,pth,2.40
2022-11-27T00:09:00,pth,1.20
2022-11-27T00:10:00,pth,1.20
2022-11-27T00:12:00,pth,2.40
2022-11-27T00:14:00,pth,1.20
2022-11-27T00:16:00,pth,2.40
2022-11-27T00:18:00,pth,2.40
2022-11-27T00:20:00,pth,1.20
2022-11-27T00:21:00,pth,1.20
2022-11-27T00:23:00,pth,2.40
2022-11-27T00:25:00,pth,2.40
2022-11-27T00:26:00,pth,1.20
2022-11-27T00:28:00,pth,1.20
2022-11-27T00:30:00,pth,2.40
2022-11-27T00:31:00,pth,1.20
2022-11-27T00:32:00,pth,1.20
2022-11-27T00:34:00,pth,2.40
2022-11-27T00:36:00,pth,1.20
2022-11-27T00:38:00,pth,2.40
2022-11-27T00:40:00,pth,2.40
2022-11-27T00:42:00,pth,1.20
2022-11-27T00:44:00,pth,2.40
2022-11-27T00:45:00,pth,1.20
2022-11-27T00:47:00,pth,1.20
2022-11-27T00:49:00,pth,2.40
2022-11-27T00:50:00,pth,1.20
2022-11-27T00:52:00,pth,1.20
2022-11-27T00:54:00,pth,2.40
2022-11-27T00:56:00,pth,1.20
2022-11-27T00:58:00,pth,2.40
2022-11-27T00:59:00,pth,1.20
2022-11-27T01:01:00,pth,1.20
2022-11-27T01:02:00,pth,1.20
2022-11-27T01:04:00,pth,1.20
2022-11-27T01:05:00,pth,1.20
2022-11-27T01:06:00,pth,1.20
2022-11-27T01:07:00,pth,1.20
2022-11-27T01:09:00,pth,1.20
2022-11-27T01:10:00,pth,1.20
2022-11-27T01:12:00,pth,1.20
2022-11-27T01:14:00,pth,2.40
2022-11-27T01:16:00,pth,1.20
2022-11-27T01:18:00,pth,2.40
2022-11-27T01:20:00,pth,1.20
2022-11-27T01:22:00,pth,2.40
2022-11-27T01:24:00,pth,1.20
2022-11-27T01:26:00,pth,1.20
2022-11-27T01:27:00,pth,1.20
2022-11-27T01:29:00,pth,2.40
2022-11-27T01:31:00,pth,1.20
2022-11-27T01:32:00,pth,1.20
2022-11-27T01:34:00,pth,2.40
2022-11-27T01:36:00,pth,2.40
2022-11-27T01:38:00,pth,1.20
2022-11-27T01:39:00,pth,1.20
2022-11-27T01:41:00,pth,2.40
2022-11-27T01:43:00,pth,2.40
2022-11-27T01:45:00,pth,2.40
2022-11-27T01:48:00,pth,2.40
2022-11-27T01:49:00,pth,1.20
2022-11-27T01:51:00,pth,1.20
2022-11-27T01:53:00,pth,2.40
2022-11-27T01:55:00,pth,2.40
2022-11-27T01:58:00,pth,2.40
2022-11-27T02:00:00,pth,2.40
2022-11-27T02:02:00,pth,1.20
2022-11-27T02:03:00,pth,1.20
2022-11-27T02:05:00,pth,2.40
2022-11-27T02:06:00,pth,1.20
2022-11-27T02:08:00,pth,1.20
2022-11-27T02:09:00,pth,1.20
2022-11-27T02:11:00,pth,2.40
2022-11-27T02:13:00,pth,1.20
2022-11-27T02:14:00,pth,1.20
2022-11-27T02:15:00,pth,1.20
2022-11-27T02:17:00,pth,2.40
2022-11-27T02:19:00,pth,1.20
2022-11-27T02:20:00,pth,1.20
2022-11-27T02:21:00,pth,1.20
2022-11-27T02:22:00,pth,1.20
2022-11-27T02:24:00,pth,2.40
2022-11-27T02:26:00,pth,1.20
2022-11-27T02:28:00,pth,2.40
2022-11-27T02:29:00,pth,1.20
2022-11-27T02:31:00,pth,1.20
2022-11-27T02:33:00,pth,2.40
2022-11-27T02:35:00,pth,2.40
2022-11-27T02:36:00,pth,1.20
2022-11-27T02:38:00,pth,1.20
2022-11-27T02:39:00,pth,1.20
2022-11-27T02:41:00,pth,1.20
2022-11-27T02:43:00,pth,2.40
2022-11-27T02:44:00,pth,1.20
2022-11-27T02:46:00,pth,1.20
2022-11-27T02:48:00,pth,2.40
2022-11-27T02:50:00,pth,1.20
2022-11-27T02:51:00,pth,1.20
2022-11-27T02:53:00,pth,2.40
2022-11-27T02:55:00,pth,1.20
2022-11-27T02:57:00,pth,2.40
2022-11-27T02:59:00,pth,1.20
2022-11-27T03:01:00,pth,2.40
2022-11-27T03:02:00,pth,1.20
2022-11-27T03:04:00,pth,1.20
2022-11-27T03:06:00,pth,2.40
2022-11-27T03:08:00,pth,1.20
2022-11-27T03:10:00,pth,2.40
2022-11-27T03:12:00,pth,2.40
2022-11-27T03:14:00,pth,1.20
2022-11-27T03:16:00,pth,2.40
2022-11-27T03:17:00,pth,1.20
2022-11-27T03:19:00,pth,1.20
2022-11-27T03:21:00,pth,2.40
2022-11-27T03:23:00,pth,2.40
2022-11-27T03:25:00,pth,1.20
2022-11-27T03:27:00,pth,1.20
2022-11-27T03:29:00,pth,2.40
2022-11-27T03:31:00,pth,2.40
2022-11-27T03:34:00,pth,2.40
2022-11-27T03:35:00,pth,1.20
2022-11-27T03:37:00,pth,1.20
2022-11-27T03:39:00,pth,2.40
2022-11-27T03:40:00,pth,1.20
2022-11-27T03:42:00,pth,2.40
2022-11-27T03:44:00,pth,1.20
2022-11-27T03:46:00,pth,2.40
2022-11-27T03:48:00,pth,2.40
2022-11-27T03:50:00,pth,2.40
2022-11-27T03:51:00,pth,1.20
2022-11-27T03:53:00,pth,1.20
2022-11-27T03:54:00,pth,1.20
2022-11-27T03:56:00,pth,2.40
2022-11-27T03:57:00,pth,1.20
2022-11-27T03:59:00,pth,2.40
2022-11-27T04:01:00,pth,2.40
2022-11-27T04:04:00,pth,2.40
2022-11-27T04:06:00,pth,2.40
2022-11-27T04:07:00,pth,1.20
2022-11-27T04:09:00,pth,1.20
2022-11-27T04:10:00,pth,1.20
2022-11-27T04:12:00,pth,2.40
2022-11-27T04:14:00,pth,1.20
2022-11-27T04:15:00,pth,1.20
2022-11-27T04:17:00,pth,1.20
2022-11-27T04:18:00,pth,1.20
2022-11-27T04:19:00,pth,1.20
2022-11-27T04:21:00,pth,2.40
2022-11-27T04:23:00,pth,1.20
2022-11-27T04:25:00,pth,2.40
2022-11-27T04:27:00,pth,1.20
2022-11-27T04:29:00,pth,2.40
2022-11-27T04:30:00,pth,1.20
2022-11-27T04:32:00,pth,1.20
2022-11-27T04:34:00,pth,2.40
2022-11-27T04:36:00,pth,1.20
2022-11-27T04:37:00,pth,1.20
2022-11-27T04:39:00,pth,2.40
2022-11-27T04:41:00,pth,1.20
2022-11-27T04:42:00,pth,1.20
2022-11-27T04:44:00,pth,2.40
2022-11-27T04:46:00,pth,2.40
2022-11-27T04:48:00,pth,1.20
2022-11-27T04:50:00,pth,2.40
2022-11-27T04:52:00,pth,1.20
2022-11-27T04:53:00,pth,1.20
2022-11-27T04:54:00,pth,1.20
2022-11-27T04:55:00,pth,1.20
2022-11-27T04:56:00,pth,1.20
2022-11-27T04:58:00,pth,1.20
2022-11-27T05:00:00,pth,2.40
2022-11-27T05:01:00,pth,1.20
2022-11-27T05:04:00,pth,2.40
2022-11-27T05:05:00,pth,1.20
2022-11-27T05:07:00,pth,1.20
2022-11-27T05:09:00,pth,2.40
2022-11-27T05:12:00,pth,2.40
2022-11-27T05:14:00,pth,2.40
2022-11-27T05:15:00,pth,1.20
2022-11-27T05:17:00,pth,1.20
2022-11-27T05:18:00,pth,1.20
2022-11-27T05:19:00,pth,1.20
2022-11-27T05:22:00,pth,2.40
2022-11-27T05:23:00,pth,1.20
2022-11-27T05:24:00,pth,1.20
2022-11-27T05:25:00,pth,1.20
2022-11-27T05:27:00,pth,1.20
2022-11-27T05:28:00,pth,1.20
2022-11-27T05:29:00,pth,1.20
2022-11-27T05:30:00,pth,1.20
2022-11-27T05:32:00,pth,1.20
2022-11-27T05:34:00,pth,2.40
2022-11-27T05:35:00,pth,1.20
2022-11-27T05:37:00,pth,2.40
2022-11-27T05:39:00,pth,1.20
2022-11-27T05:40:00,pth,1.20
2022-11-27T05:42:00,pth,2.40
2022-11-27T05:44:00,pth,2.40
2022-11-27T05:46:00,pth,1.20
2022-11-27T05:48:00,pth,2.40
2022-11-27T05:49:00,pth,1.20
2022-11-27T05:51:00,pth,2.40
2022-11-27T05:52:00,pth,1.20
2022-11-27T05:54:00,pth,2.40
2022-11-27T05:56:00,pth,1.20
2022-11-27T05:58:00,pth,2.40
2022-11-27T06:00:00,pth,1.20
2022-11-27T06:02:00,pth,2.40
2022-11-27T06:04:00,pth,1.20
2022-11-27T06:06:00,pth,1.20
2022-11-27T06:07:00,pth,1.20
2022-11-27T06:09:00,pth,1.20
2022-11-27T06:10:00,pth,1.20
2022-11-27T06:12:00,pth,2.40
2022-11-27T06:13:00,pth,1.20
2022-11-27T06:15:00,pth,1.20
2022-11-27T06:17:00,pth,1.20
2022-11-27T06:18:00,pth,1.20
2022-11-27T06:20:00,pth,2.40
2022-11-27T06:22:00,pth,2.40
2022-11-27T06:24:00,pth,1.20
2022-11-27T06:25:00,pth,1.20
2022-11-27T06:26:00,pth,1.20
2022-11-27T06:28:00,pth,2.40
2022-11-27T06:30:00,pth,1.20
2022-11-27T06:32:00,pth,2.40
2022-11-27T06:34:00,pth,1.20
2022-11-27T06:36:00,pth,2.40
2022-11-27T06:37:00,pth,1.20
2022-11-27T06:38:00,pth,1.20
2022-11-27T06:40:00,pth,1.20
2022-11-27T06:42:00,pth,2.40
2022-11-27T06:44:00,pth,2.40
2022-11-27T06:46:00,pth,1.20
2022-11-27T06:48:00,pth,2.40
2022-11-27T06:50:00,pth,1.20
2022-11-27T06:52:00,pth,2.40
2022-11-27T06:53:00,pth,1.20
2022-11-27T06:55:00,pth,1.20
2022-11-27T06:56:00,pth,1.20
2022-11-27T06:58:00,pth,2.40
2022-11-27T06:59:00,pth,1.20
2022-11-27T07:02:00,pth,2.40
2022-11-27T07:03:00,pth,1.20
2022-11-27T07:06:00,pth,2.40
2022-11-27T07:07:00,pth,1.20
2022-11-27T07:08:00,pth,1.20
2022-11-27T07:10:00,pth,1.20
2022-11-27T07:12:00,pth,2.40
2022-11-27T07:14:00,pth,1.20
2022-11-27T07:15:00,pth,1.20
2022-11-27T07:16:00,pth,1.20
2022-11-27T07:17:00,pth,1.20
2022-11-27T07:18:00,pth,1.20
2022-11-27T07:20:00,pth,1.20
2022-11-27T07:21:00,pth,1.20
2022-11-27T07:23:00,pth,2.40
2022-11-27T07:25:00,pth,1.20
2022-11-27T07:26:00,pth,1.20
2022-11-27T07:28:00,pth,2.40
2022-11-27T07:29:00,pth,1.20
2022-11-27T07:30:00,pth,1.20
2022-11-27T07:32:00,pth,1.20
2022-11-27T07:34:00,pth,2.40
2022-11-27T07:36:00,pth,2.40
2022-11-27T07:37:00,pth,1.20
2022-11-27T07:38:00,pth,1.20
2022-11-27T07:39:00,pth,1.20
2022-11-27T07:41:00,pth,1.20
2022-11-27T07:43:00,pth,2.40
2022-11-27T07:45:00,pth,2.40
2022-11-27T07:47:00,pth,1.20
2022-11-27T07:48:00,pth,1.20
2022-11-27T07:50:00,pth,1.20
2022-11-27T07:52:00,pth,2.40
2022-11-27T07:55:00,pth,2.40
2022-11-27T07:57:00,pth,1.20
2022-11-27T07:59:00,pth,1.20
2022-11-27T08:01:00,pth,2.40
2022-11-27T08:04:00,pth,1.20
2022-11-27T08:05:00,pth,1.20
2022-11-27T08:07:00,pth,1.20
2022-11-27T08:09:00,pth,1.20
2022-11-27T08:10:00,pth,1.20
2022-11-27T08:13:00,pth,1.20
2022-11-27T08:15:00,pth,1.20
2022-11-27T08:17:00,pth,1.20
2022-11-27T08:18:00,pth,1.20
2022-11-27T08:20:00,pth,1.20
2022-11-27T08:22:00,pth,1.20
2022-11-27T08:23:00,pth,1.20
2022-11-27T08:25:00,pth,1.20
2022-11-27T08:27:00,pth,1.20
2022-11-27T08:29:00,pth,1.20
2022-11-27T08:30:00,pth,1.20
2022-11-27T08:32:00,pth,1.20
2022-11-27T08:34:00,pth,1.20
2022-11-27T08:37:00,pth,1.20
2022-11-27T08:38:00,pth,1.20
2022-11-27T08:41:00,pth,1.20
2022-11-27T08:42:00,pth,1.20
2022-11-27T08:45:00,pth,1.20
2022-11-27T08:47:00,pth,1.20
2022-11-27T08:49:00,pth,2.40
2022-11-27T08:51:00,pth,1.20
2022-11-27T08:53:00,pth,1.20
2022-11-27T08:55:00,pth,1.20
2022-11-27T08:57:00,pth,1.20
2022-11-27T08:58:00,pth,1.20
2022-11-27T09:00:00,pth,1.20
2022-11-27T09:02:00,pth,1.20
2022-11-27T09:03:00,pth,1.20
2022-11-27T09:06:00,pth,2.40
2022-11-27T09:08:00,pth,1.20
2022-11-27T09:10:00,pth,2.40
2022-11-27T09:13:00,pth,2.40
2022-11-27T09:15:00,pth,1.20
2022-11-27T09:16:00,pth,1.20
2022-11-27T09:18:00,pth,1.20
2022-11-27T09:20:00,pth,1.20
2022-11-27T09:22:00,pth,1.20
2022-11-27T09:24:00,pth,1.20
2022-11-27T09:25:00,pth,1.20
2022-11-27T09:27:00,pth,1.20
2022-11-27T09:29:00,pth,1.20
2022-11-27T09:32:00,pth,2.40
2022-11-27T09:35:00,pth,2.40
2022-11-27T09:37:00,pth,1.20
2022-11-27T09:38:00,pth,1.20
2022-11-27T09:40:00,pth,1.20
2022-11-27T09:42:00,pth,2.40
2022-11-27T09:44:00,pth,1.20
2022-11-27T09:46:00,pth,1.20
2022-11-27T09:48:00,pth,1.20
2022-11-27T09:49:00,pth,1.20
2022-11-27T09:51:00,pth,1.20
2022-11-27T09:53:00,pth,1.20
2022-11-27T09:55:00,pth,1.20
2022-11-27T09:56:00,pth,1.20
2022-11-27T09:58:00,pth,1.20
2022-11-27T10:00:00,pth,1.20
2022-11-27T10:02:00,pth,2.40
2022-11-27T10:05:00,pth,2.40
2022-11-27T10:07:00,pth,1.20
2022-11-27T10:08:00,pth,1.20
2022-11-27T10:09:00,pth,2.40
2022-11-27T10:11:00,pth,3.60
2022-11-27T10:13:00,pth,2.40
2022-11-27T10:14:00,pth,1.20
2022-11-27T10:15:00,pth,1.20
2022-11-27T10:17:00,pth,1.20
2022-11-27T10:19:00,pth,2.40
2022-11-27T10:21:00,pth,2.40
2022-11-27T10:23:00,pth,2.40
2022-11-27T10:24:00,pth,1.20
2022-11-27T10:26:00,pth,1.20
2022-11-27T10:27:00,pth,1.20
2022-11-27T10:29:00,pth,2.40
2022-11-27T10:30:00,pth,1.20
2022-11-27T10:32:00,pth,1.20
2022-11-27T10:34:00,pth,2.40
2022-11-27T10:35:00,pth,1.20
2022-11-27T10:37:00,pth,1.20
2022-11-27T10:39:00,pth,2.40
2022-11-27T10:41:00,pth,2.40
2022-11-27T10:44:00,pth,2.40
2022-11-27T10:45:00,pth,1.20
2022-11-27T10:47:00,pth,1.20
2022-11-27T10:49:00,pth,2.40
2022-11-27T10:50:00,pth,1.20
2022-11-27T10:52:00,pth,2.40
2022-11-27T10:54:00,pth,1.20
2022-11-27T10:56:00,pth,2.40
2022-11-27T10:57:00,pth,1.20
2022-11-27T10:59:00,pth,2.40
2022-11-27T11:00:00,pth,1.20
2022-11-27T11:01:00,pth,1.20
2022-11-27T11:03:00,pth,2.40
2022-11-27T11:05:00,pth,2.40
2022-11-27T11:07:00,pth,2.40
2022-11-27T11:09:00,pth,2.40
2022-11-27T11:11:00,pth,2.40
2022-11-27T11:12:00,pth,1.20
2022-11-27T11:14:00,pth,2.40
2022-11-27T11:15:00,pth,1.20
2022-11-27T11:16:00,pth,1.20
2022-11-27T11:18:00,pth,3.60
2022-11-27T11:20:00,pth,2.40
2022-11-27T11:21:00,pth,1.20
2022-11-27T11:23:00,pth,2.40
2022-11-27T11:24:00,pth,1.20
2022-11-27T11:26:00,pth,2.40
2022-11-27T11:28:00,pth,2.40
2022-11-27T11:30:00,pth,2.40
2022-11-27T11:32:00,pth,1.20
2022-11-27T11:33:00,pth,1.20
2022-11-27T11:34:00,pth,1.20
2022-11-27T11:36:00,pth,1.20
2022-11-27T11:38:00,pth,3.60
2022-11-27T11:39:00,pth,1.20
2022-11-27T11:41:00,pth,2.40
2022-11-27T11:42:00,pth,1.20
2022-11-27T11:43:00,pth,1.20
2022-11-27T11:44:00,pth,1.20
2022-11-27T11:45:00,pth,2.40
2022-11-27T11:47:00,pth,2.40
2022-11-27T11:48:00,pth,2.40
2022-11-27T11:49:00,pth,1.20
2022-11-27T11:51:00,pth,1.20
2022-11-27T11:52:00,pth,1.20
2022-11-27T11:54:00,pth,1.20
2022-11-27T11:56:00,pth,2.40
2022-11-27T11:57:00,pth,1.20
2022-11-27T11:59:00,pth,2.40
2022-11-27T12:02:00,pth,1.20
2022-11-27T12:03:00,pth,1.20
2022-11-27T12:05:00,pth,1.20
2022-11-27T12:06:00,pth,1.20
2022-11-27T12:07:00,pth,1.20
2022-11-27T12:09:00,pth,1.20
2022-11-27T12:11:00,pth,1.20
2022-11-27T12:13:00,pth,2.40
2022-11-27T12:15:00,pth,1.20
2022-11-27T12:17:00,pth,1.20
2022-11-27T12:19:00,pth,1.20
2022-11-27T12:20:00,pth,1.20
2022-11-27T12:22:00,pth,1.20
2022-11-27T12:23:00,pth,1.20
2022-11-27T12:25:00,pth,1.20
2022-11-27T12:27:00,pth,1.20
2022-11-27T12:28:00,pth,1.20
2022-11-27T12:30:00,pth,1.20
2022-11-27T12:32:00,pth,1.20
2022-11-27T12:33:00,pth,1.20
2022-11-27T12:36:00,pth,1.20
2022-11-27T12:38:00,pth,2.40
2022-11-27T12:40:00,pth,1.20
2022-11-27T12:41:00,pth,1.20
2022-11-27T12:43:00,pth,1.20
2022-11-27T12:45:00,pth,2.40
2022-11-27T12:46:00,pth,1.20
2022-11-27T12:47:00,pth,1.20
2022-11-27T12:49:00,pth,2.40
2022-11-27T12:50:00,pth,1.20
2022-11-27T12:52:00,pth,2.40
2022-11-27T12:54:00,pth,2.40
2022-11-27T12:56:00,pth,2.40
2022-11-27T12:58:00,pth,1.20
2022-11-27T13:00:00,pth,2.40
2022-11-27T13:02:00,pth,1.20
2022-11-27T13:03:00,pth,1.20
2022-11-27T13:05:00,pth,2.40
2022-11-27T13:08:00,pth,1.20
2022-11-27T13:10:00,pth,1.20
2022-11-27T13:11:00,pth,1.20
2022-11-27T13:13:00,pth,2.40
2022-11-27T13:15:00,pth,1.20
2022-11-27T13:17:00,pth,2.40
2022-11-27T13:19:00,pth,2.40
2022-11-27T13:21:00,pth,1.20
2022-11-27T13:23:00,pth,2.40
2022-11-27T13:24:00,pth,1.20
2022-11-27T13:25:00,pth,1.20
2022-11-27T13:27:00,pth,1.20
2022-11-27T13:28:00,pth,1.20
2022-11-27T13:30:00,pth,1.20
2022-11-27T13:32:00,pth,2.40
2022-11-27T13:34:00,pth,1.20
2022-11-27T13:35:00,pth,1.20
2022-11-27T13:37:00,pth,2.40
2022-11-27T13:39:00,pth,1.20
2022-11-27T13:40:00,pth,1.20
2022-11-27T13:42:00,pth,1.20
2022-11-27T13:43:00,pth,1.20
2022-11-27T13:45:00,pth,1.20
2022-11-27T13:46:00,pth,1.20
2022-11-27T13:48:00,pth,1.20
2022-11-27T13:51:00,pth,2.40
2022-11-27T13:54:00,pth,2.40
2022-11-27T13:57:00,pth,1.20
2022-11-27T13:58:00,pth,1.20
2022-11-27T14:00:00,pth,1.20
2022-11-27T14:02:00,pth,1.20
2022-11-27T14:03:00,pth,1.20
2022-11-27T14:05:00,pth,1.20
2022-11-27T14:06:00,pth,1.20
2022-11-27T14:08:00,pth,1.20
2022-11-27T14:10:00,pth,2.40
2022-11-27T14:13:00,pth,2.40
2022-11-27T14:15:00,pth,1.20
2022-11-27T14:17:00,pth,1.20
2022-11-27T14:18:00,pth,1.20
2022-11-27T14:20:00,pth,1.20
2022-11-27T14:22:00,pth,1.20
2022-11-27T14:24:00,pth,1.20
2022-11-27T14:26:00,pth,1.20
2022-11-27T14:28:00,pth,2.40
2022-11-27T14:30:00,pth,1.20
2022-11-27T14:32:00,pth,1.20
2022-11-27T14:33:00,pth,1.20
2022-11-27T14:35:00,pth,1.20
2022-11-27T14:37:00,pth,2.40
2022-11-27T14:39:00,pth,1.20
2022-11-27T14:41:00,pth,2.40
2022-11-27T14:43:00,pth,1.20
2022-11-27T14:46:00,pth,2.40
2022-11-27T14:49:00,pth,2.40
2022-11-27T14:50:00,pth,1.20
2022-11-27T14:52:00,pth,1.20
2022-11-27T14:54:00,pth,1.20
2022-11-27T14:56:00,pth,1.20
2022-11-27T14:58:00,pth,2.40
2022-11-27T14:59:00,pth,1.20
2022-11-27T15:01:00,pth,1.20
2022-11-27T15:04:00,pth,2.40
2022-11-27T15:06:00,pth,1.20
2022-11-27T15:08:00,pth,2.40
2022-11-27T15:10:00,pth,1.20
2022-11-27T15:12:00,pth,1.20
2022-11-27T15:13:00,pth,1.20
2022-11-27T15:15:00,pth,1.20
2022-11-27T15:17:00,pth,2.40
2022-11-27T15:20:00,pth,1.20
2022-11-27T15:22:00,pth,1.20
2022-11-27T15:24:00,pth,2.40
2022-11-27T15:26:00,pth,1.20
2022-11-27T15:28:00,pth,2.40
2022-11-27T15:30:00,pth,2.40
2022-11-27T15:33:00,pth,1.20
2022-11-27T15:35:00,pth,2.40
2022-11-27T15:37:00,pth,1.20
2022-11-27T15:39:00,pth,1.20
2022-11-27T15:41:00,pth,1.20
2022-11-27T15:42:00,pth,1.20
2022-11-27T15:45:00,pth,1.20
2022-11-27T15:47:00,pth,2.40
2022-11-27T15:49:00,pth,2.40
2022-11-27T15:51:00,pth,2.40
2022-11-27T15:53:00,pth,2.40
2022-11-27T15:54:00,pth,2.40
2022-11-27T15:56:00,pth,2.40
2022-11-27T15:57:00,pth,1.20
2022-11-27T15:59:00,pth,3.60
2022-11-27T16:00:00,pth,1.20
2022-11-27T16:01:00,pth,1.20
2022-11-27T16:03:00,pth,2.40
2022-11-27T16:04:00,pth,1.20
2022-11-27T16:05:00,pth,1.20
2022-11-27T16:07:00,pth,2.40
2022-11-27T16:09:00,pth,2.40
2022-11-27T16:11:00,pth,3.60
2022-11-27T16:13:00,pth,2.40
2022-11-27T16:15:00,pth,2.40
2022-11-27T16:16:00,pth,1.20
2022-11-27T16:18:00,pth,2.40
2022-11-27T16:20:00,pth,2.40
2022-11-27T16:22:00,pth,3.60
2022-11-27T16:23:00,pth,1.20
2022-11-27T16:25:00,pth,1.20
2022-11-27T16:27:00,pth,3.60
2022-11-27T16:28:00,pth,1.20
2022-11-27T16:30:00,pth,2.40
2022-11-27T16:31:00,pth,1.20
2022-11-27T16:33:00,pth,2.40
2022-11-27T16:35:00,pth,2.40
2022-11-27T16:36:00,pth,1.20
2022-11-27T16:37:00,pth,1.20
2022-11-27T16:39:00,pth,2.40
2022-11-27T16:41:00,pth,2.40
2022-11-27T16:43:00,pth,2.40
2022-11-27T16:44:00,pth,1.20
2022-11-27T16:46:00,pth,2.40
2022-11-27T16:47:00,pth,1.20
2022-11-27T16:49:00,pth,2.40
2022-11-27T16:51:00,pth,2.40
2022-11-27T16:52:00,pth,1.20
2022-11-27T16:53:00,pth,1.20
2022-11-27T16:55:00,pth,2.40
2022-11-27T16:57:00,pth,3.60
2022-11-27T16:58:00,pth,1.20
2022-11-27T17:01:00,pth,2.40
2022-11-27T17:03:00,pth,2.40
2022-11-27T17:05:00,pth,2.40
2022-11-27T17:07:00,pth,3.60
2022-11-27T17:09:00,pth,2.40
2022-11-27T17:10:00,pth,2.40
2022-11-27T17:12:00,pth,2.40
2022-11-27T17:13:00,pth,1.20
2022-11-27T17:15:00,pth,3.60
2022-11-27T17:16:00,pth,1.20
2022-11-27T17:18:00,pth,2.40
2022-11-27T17:20:00,pth,2.40
2022-11-27T17:22:00,pth,2.40
2022-11-27T17:24:00,pth,3.60
2022-11-27T17:26:00,pth,3.60
2022-11-27T17:27:00,pth,1.20
2022-11-27T17:28:00,pth,2.40
2022-11-27T17:30:00,pth,2.40
2022-11-27T17:31:00,pth,1.20
2022-11-27T17:32:00,pth,1.20
2022-11-27T17:34:00,pth,2.40
2022-11-27T17:36:00,pth,2.40
2022-11-27T17:37:00,pth,1.20
2022-11-27T17:39:00,pth,2.40
2022-11-27T17:41:00,pth,2.40
2022-11-27T17:42:00,pth,1.20
2022-11-27T17:44:00,pth,3.60
2022-11-27T17:45:00,pth,1.20
2022-11-27T17:47:00,pth,2.40
2022-11-27T17:49:00,pth,2.40
2022-11-27T17:50:00,pth,2.40
2022-11-27T17:52:00,pth,2.40
2022-11-27T17:54:00,pth,2.40
2022-11-27T17:56:00,pth,2.40
2022-11-27T17:57:00,pth,2.40
2022-11-27T17:59:00,pth,2.40
2022-11-27T18:01:00,pth,2.40
2022-11-27T18:03:00,pth,2.40
2022-11-27T18:05:00,pth,3.60
2022-11-27T18:06:00,pth,1.20
2022-11-27T18:07:00,pth,1.20
2022-11-27T18:09:00,pth,3.60
2022-11-27T18:11:00,pth,2.40
2022-11-27T18:12:00,pth,1.20
2022-11-27T18:14:00,pth,2.40
2022-11-27T18:15:00,pth,1.20
2022-11-27T18:17:00,pth,2.40
2022-11-27T18:19:00,pth,3.60
2022-11-27T18:20:00,pth,1.20
2022-11-27T18:22:00,pth,2.40
2022-11-27T18:24:00,pth,2.40
2022-11-27T18:26:00,pth,2.40
2022-11-27T18:27:00,pth,2.40
2022-11-27T18:29:00,pth,2.40
2022-11-27T18:31:00,pth,3.60
2022-11-27T18:32:00,pth,1.20
2022-11-27T18:34:00,pth,3.60
2022-11-27T18:35:00,pth,1.20
2022-11-27T18:37:00,pth,2.40
2022-11-27T18:38:00,pth,1.20
2022-11-27T18:40:00,pth,2.40
2022-11-27T18:41:00,pth,1.20
2022-11-27T18:43:00,pth,2.40
2022-11-27T18:44:00,pth,2.40
2022-11-27T18:46:00,pth,2.40
2022-11-27T18:47:00,pth,1.20
2022-11-27T18:49:00,pth,2.40
2022-11-27T18:51:00,pth,2.40
2022-11-27T18:52:00,pth,1.20
2022-11-27T18:54:00,pth,2.40
2022-11-27T18:56:00,pth,2.40
2022-11-27T18:58:00,pth,2.40
2022-11-27T18:59:00,pth,1.20
2022-11-27T19:01:00,pth,2.40
2022-11-27T19:02:00,pth,1.20
2022-11-27T19:04:00,pth,2.40
2022-11-27T19:06:00,pth,2.40
2022-11-27T19:07:00,pth,1.20
2022-11-27T19:09:00,pth,2.40
2022-11-27T19:11:00,pth,2.40
2022-11-27T19:12:00,pth,1.20
2022-11-27T19:13:00,pth,1.20
2022-11-27T19:15:00,pth,2.40
2022-11-27T19:16:00,pth,1.20
2022-11-27T19:18:00,pth,3.60
2022-11-27T19:20:00,pth,3.60
2022-11-27T19:22:00,pth,3.60
2022-11-27T19:23:00,pth,1.20
2022-11-27T19:25:00,pth,3.60
2022-11-27T19:27:00,pth,3.60
2022-11-27T19:29:00,pth,3.60
2022-11-27T19:31:00,pth,7.20
2022-11-27T19:33:00,pth,4.80
2022-11-27T19:35:00,pth,2.40
2022-11-27T19:36:00,pth,2.40
2022-11-27T19:37:00,pth,1.20
2022-11-27T19:39:00,pth,2.40
2022-11-27T19:41:00,pth,3.60
2022-11-27T19:43:00,pth,3.60
2022-11-27T19:45:00,pth,2.40
2022-11-27T19:47:00,pth,2.40
2022-11-27T19:48:00,pth,2.40
2022-11-27T19:50:00,pth,2.40
2022-11-27T19:52:00,pth,3.60
2022-11-27T19:53:00,pth,1.20
2022-11-27T19:55:00,pth,2.40
2022-11-27T19:56:00,pth,1.20
2022-11-27T19:58:00,pth,2.40
2022-11-27T20:00:00,pth,3.60
2022-11-27T20:01:00,pth,1.20
2022-11-27T20:03:00,pth,2.40
2022-11-27T20:05:00,pth,3.60
2022-11-27T20:07:00,pth,3.60
2022-11-27T20:09:00,pth,3.60
2022-11-27T20:11:00,pth,3.60
2022-11-27T20:13:00,pth,2.40
2022-11-27T20:14:00,pth,2.40
2022-11-27T20:16:00,pth,2.40
2022-11-27T20:17:00,pth,1.20
2022-11-27T20:18:00,pth,2.40
2022-11-27T20:20:00,pth,3.60
2022-11-27T20:22:00,pth,2.40
2022-11-27T20:23:00,pth,1.20
2022-11-27T20:25:00,pth,3.60
2022-11-27T20:27:00,pth,3.60
2022-11-27T20:28:00,pth,2.40
2022-11-27T20:30:00,pth,4.80
2022-11-27T20:31:00,pth,1.20
2022-11-27T20:33:00,pth,3.60
2022-11-27T20:35:00,pth,3.60
2022-11-27T20:36:00,pth,1.20
2022-11-27T20:38:00,pth,3.60
2022-11-27T20:39:00,pth,1.20
2022-11-27T20:41:00,pth,3.60
2022-11-27T20:43:00,pth,12.00
2022-11-27T20:44:00,pth,7.20
2022-11-27T20:46:00,pth,14.40
2022-11-27T20:47:00,pth,7.20
2022-11-27T20:48:00,pth,7.20
2022-11-27T20:50:00,pth,14.40
2022-11-27T20:52:00,pth,14.40
2022-11-27T20:54:00,pth,14.40
2022-11-27T20:55:00,pth,7.20
2022-11-27T20:57:00,pth,13.20
2022-11-27T20:59:00,pth,14.40
2022-11-27T21:01:00,pth,9.60
2022-11-27T21:03:00,pth,12.00
2022-11-27T21:05:00,pth,8.40
2022-11-27T21:06:00,pth,6.00
2022-11-27T21:07:00,pth,2.40
2022-11-27T21:09:00,pth,12.00
2022-11-27T21:11:00,pth,9.60
2022-11-27T21:13:00,pth,8.40
2022-11-27T21:15:00,pth,9.60
2022-11-27T21:16:00,pth,7.20
2022-11-27T21:18:00,pth,8.40
2022-11-27T21:19:00,pth,7.20
2022-11-27T21:21:00,pth,6.00
2022-11-27T21:23:00,pth,9.60
2022-11-27T21:25:00,pth,10.80
2022-11-27T21:27:00,pth,8.40
2022-11-27T21:29:00,pth,8.40
2022-11-27T21:30:00,pth,4.80
2022-11-27T21:32:00,pth,9.60
2022-11-27T21:33:00,pth,2.40
2022-11-27T21:35:00,pth,9.60
2022-11-27T21:37:00,pth,10.80
2022-11-27T21:39:00,pth,7.20
2022-11-27T21:41:00,pth,3.60
2022-11-27T21:42:00,pth,1.20
2022-11-27T21:43:00,pth,1.20
2022-11-27T21:45:00,pth,3.60
2022-11-27T21:46:00,pth,1.20
2022-11-27T21:48:00,pth,3.60
2022-11-27T21:50:00,pth,2.40
2022-11-27T21:51:00,pth,2.40
2022-11-27T21:53:00,pth,3.60
2022-11-27T21:54:00,pth,1.20
2022-11-27T21:55:00,pth,2.40
2022-11-27T21:56:00,pth,2.40
2022-11-27T21:58:00,pth,2.40
2022-11-27T22:00:00,pth,3.60
2022-11-27T22:01:00,pth,2.40
2022-11-27T22:03:00,pth,3.60
2022-11-27T22:05:00,pth,3.60
2022-11-27T22:07:00,pth,3.60
2022-11-27T22:08:00,pth,1.20
2022-11-27T22:10:00,pth,4.80
2022-11-27T22:12:00,pth,3.60
2022-11-27T22:14:00,pth,3.60
2022-11-27T22:15:00,pth,2.40
2022-11-27T22:17:00,pth,3.60
2022-11-27T22:18:00,pth,2.40
2022-11-27T22:20:00,pth,3.60
2022-11-27T22:22:00,pth,3.60
2022-11-27T22:24:00,pth,2.40
2022-11-27T22:25:00,pth,1.20
2022-11-27T22:27:00,pth,3.60
2022-11-27T22:29:00,pth,3.60
2022-11-27T22:30:00,pth,1.20
2022-11-27T22:32:00,pth,3.60
2022-11-27T22:34:00,pth,2.40
2022-11-27T22:36:00,pth,10.80
2022-11-27T22:37:00,pth,7.20
2022-11-27T22:38:00,pth,7.20
2022-11-27T22:40:00,pth,14.40
2022-11-27T22:42:00,pth,13.20
2022-11-27T22:43:00,pth,7.20
2022-11-27T22:45:00,pth,13.20
2022-11-27T22:47:00,pth,14.40
2022-11-27T22:49:00,pth,13.20
2022-11-27T22:50:00,pth,7.20
2022-11-27T22:52:00,pth,14.40
2022-11-27T22:54:00,pth,13.20
2022-11-27T22:56:00,pth,14.40
2022-11-27T22:57:00,pth,7.20
2022-11-27T22:59:00,pth,14.40
2022-11-27T23:00:00,pth,7.20
2022-11-27T23:02:00,pth,14.40
